Overview Statistics Trail Chart Weather Telemetry Raw packets
 

This is the latest recevied weather packets stored in our database for station/object NT9G. If no packets are shown the sender has not sent any weather packets the latest 10 day(s).

<< 89 90 91 92 93 94 95 >>
Time Temp. Humidity Pressure Rain* Wind** Luminosity Snow
1777140692 18.89° C 45% 1014.7 hPa 0 mm - - -
1777140392 19.44° C 46% 1014.8 hPa 0 mm - - -
1777139791 19.44° C 50% 1015 hPa 0 mm - - -
1777139491 19.44° C 51% 1015 hPa 0 mm - - -
1777139191 18.89° C 53% 1015.2 hPa 0 mm - - -
1777138891 18.33° C 48% 1015.4 hPa 0 mm - - -
1777138591 18.89° C 53% 1015.4 hPa 0 mm - - -
1777138290 18.33° C 53% 1015.5 hPa 0 mm - - -
1777137990 18.33° C 53% 1015.6 hPa 0 mm - - -
1777137089 17.78° C 53% 1015.7 hPa 0 mm - - -
1777136789 18.33° C 54% 1015.7 hPa 0 mm - - -
1777136489 18.33° C 57% 1015.7 hPa 0 mm - - -
1777136188 17.78° C 53% 1015.8 hPa 0 mm - - -
1777135888 17.78° C 55% 1015.8 hPa 0 mm - - -
1777135587 17.78° C 59% 1015.9 hPa 0 mm - - -
1777135287 16.67° C 57% 1015.9 hPa 0 mm - - -
1777134987 17.22° C 58% 1015.9 hPa 0 mm - - -
1777134686 16.67° C 59% 1015.8 hPa 0 mm - - -
1777134086 16.67° C 60% 1015.7 hPa 0 mm - - -
1777133786 16.67° C 57% 1015.8 hPa 0 mm - - -
1777133486 16.67° C 60% 1015.8 hPa 0 mm - - -
1777133185 16.11° C 61% 1015.7 hPa 0 mm - - -
1777132885 16.11° C 63% 1015.6 hPa 0 mm - - -
1777132585 16.11° C 64% 1015.5 hPa 0 mm - - -
1777132284 15.56° C 67% 1015.6 hPa 0 mm - - -

* Rain since midnight (hover to see other rain measurements)
** Current wind speed in m/s (hover to see current wind gust speed)